Time,TemperatureF,DewpointF,PressureIn,WindDirection,WindDirectionDegrees,WindSpeedMPH,WindSpeedGustMPH,Humidity,HourlyPrecipIn,Conditions,Clouds,dailyrainin,SoftwareType,DateUTC
2013-04-17 00:03:00,64.9,9.0,29.61,SSW,207,8.0,13.0,11,0.00,,,0.00,Wunderground v.1.15,2013-04-17 06:03:00,
2013-04-17 00:13:00,64.9,9.0,29.61,SSW,207,8.0,13.0,11,0.00,,,0.00,Wunderground v.1.15,2013-04-17 06:13:00,
2013-04-17 00:23:00,65.3,11.3,29.61,SSW,212,8.0,8.0,12,0.00,,,0.00,Wunderground v.1.15,2013-04-17 06:23:00,
2013-04-17 00:33:00,65.5,11.5,29.62,South,171,7.0,18.0,12,0.00,,,0.00,Wunderground v.1.15,2013-04-17 06:33:00,
2013-04-17 00:43:00,63.3,9.7,29.62,South,187,6.0,18.0,12,0.00,,,0.00,Wunderground v.1.15,2013-04-17 06:43:00,
2013-04-17 00:53:00,62.8,11.1,29.61,SSW,196,5.0,18.0,13,0.00,,,0.00,Wunderground v.1.15,2013-04-17 06:53:00,
2013-04-17 01:02:00,62.4,10.8,29.61,SSW,207,6.0,18.0,13,0.00,,,0.00,Wunderground v.1.15,2013-04-17 07:02:00,
2013-04-17 01:08:00,62.1,10.6,29.61,SW,217,6.0,18.0,13,0.00,,,0.00,Wunderground v.1.15,2013-04-17 07:08:00,
2013-04-17 01:18:00,62.2,12.3,29.61,SW,218,6.0,18.0,14,0.00,,,0.00,Wunderground v.1.15,2013-04-17 07:18:00,
2013-04-17 01:27:00,62.5,14.2,29.61,South,190,7.0,9.0,15,0.00,,,0.00,Wunderground v.1.15,2013-04-17 07:27:00,
2013-04-17 01:37:00,62.5,15.6,29.61,SSW,209,7.0,12.0,16,0.00,,,0.00,Wunderground v.1.15,2013-04-17 07:37:00,
2013-04-17 01:48:00,62.3,15.5,29.60,SSW,209,7.0,12.0,16,0.00,,,0.00,Wunderground v.1.15,2013-04-17 07:48:00,
2013-04-17 01:58:00,63.1,16.1,29.60,SW,223,9.0,12.0,16,0.00,,,0.00,Wunderground v.1.15,2013-04-17 07:58:00,
2013-04-17 02:08:00,63.4,17.8,29.60,SSW,211,10.0,12.0,17,0.00,,,0.00,Wunderground v.1.15,2013-04-17 08:08:00,
2013-04-17 02:19:00,63.2,17.6,29.60,SW,214,10.0,17.0,17,0.00,,,0.00,Wunderground v.1.15,2013-04-17 08:19:00,
2013-04-17 02:28:00,62.7,17.2,29.60,SW,223,9.0,9.0,17,0.00,,,0.00,Wunderground v.1.15,2013-04-17 08:28:00,
2013-04-17 02:38:00,62.3,18.2,29.60,SSW,201,9.0,9.0,18,0.00,,,0.00,Wunderground v.1.15,2013-04-17 08:38:00,
2013-04-17 02:48:00,61.7,17.7,29.60,SW,221,8.0,20.0,18,0.00,,,0.00,Wunderground v.1.15,2013-04-17 08:48:00,
2013-04-17 02:58:00,61.4,18.7,29.60,SSW,211,7.0,7.0,19,0.00,,,0.00,Wunderground v.1.15,2013-04-17 08:58:00,
2013-04-17 03:08:00,60.8,18.2,29.60,SW,221,6.0,6.0,19,0.00,,,0.00,Wunderground v.1.15,2013-04-17 09:08:00,
2013-04-17 03:18:00,61.0,18.4,29.60,SSW,204,8.0,8.0,19,0.00,,,0.00,Wunderground v.1.15,2013-04-17 09:18:00,
2013-04-17 03:28:00,61.1,18.5,29.59,SSW,212,8.0,12.0,19,0.00,,,0.00,Wunderground v.1.15,2013-04-17 09:28:00,
2013-04-17 03:33:00,61.1,19.7,29.59,SSW,208,9.0,17.0,20,0.00,,,0.00,Wunderground v.1.15,2013-04-17 09:33:00,
2013-04-17 03:43:00,61.2,19.8,29.59,SSW,205,8.0,17.0,20,0.00,,,0.00,Wunderground v.1.15,2013-04-17 09:43:00,
2013-04-17 03:53:00,61.2,19.8,29.59,SSW,202,8.0,17.0,20,0.00,,,0.00,Wunderground v.1.15,2013-04-17 09:53:00,
2013-04-17 04:03:00,60.8,20.6,29.58,SSW,210,7.0,17.0,21,0.00,,,0.00,Wunderground v.1.15,2013-04-17 10:03:00,
2013-04-17 04:13:00,59.7,19.6,29.59,SSW,196,3.0,17.0,21,0.00,,,0.00,Wunderground v.1.15,2013-04-17 10:13:00,
2013-04-17 04:23:00,58.0,18.2,29.59,SSW,196,2.0,2.0,21,0.00,,,0.00,Wunderground v.1.15,2013-04-17 10:23:00,
2013-04-17 04:33:00,56.8,17.2,29.59,SSW,196,1.0,17.0,21,0.00,,,0.00,Wunderground v.1.15,2013-04-17 10:33:00,
2013-04-17 04:43:00,56.2,18.8,29.59,SSW,196,1.0,17.0,23,0.00,,,0.00,Wunderground v.1.15,2013-04-17 10:43:00,
2013-04-17 04:53:00,55.4,18.2,29.59,SSW,196,0.0,17.0,23,0.00,,,0.00,Wunderground v.1.15,2013-04-17 10:53:00,
2013-04-17 04:58:00,55.0,18.8,29.59,SSW,196,0.0,17.0,24,0.00,,,0.00,Wunderground v.1.15,2013-04-17 10:58:00,
2013-04-17 05:08:00,54.4,19.3,29.60,SSW,196,0.0,17.0,25,0.00,,,0.00,Wunderground v.1.15,2013-04-17 11:08:00,
2013-04-17 05:18:00,54.2,19.1,29.59,SSW,196,1.0,17.0,25,0.00,,,0.00,Wunderground v.1.15,2013-04-17 11:18:00,
2013-04-17 05:25:00,54.5,19.3,29.59,SSW,196,1.0,17.0,25,0.00,,,0.00,Wunderground v.1.15,2013-04-17 11:25:00,
2013-04-17 05:35:00,54.4,19.3,29.59,SSW,196,1.0,3.0,25,0.00,,,0.00,Wunderground v.1.15,2013-04-17 11:35:00,
2013-04-17 05:45:00,53.6,14.5,29.59,SSW,196,2.0,4.0,21,0.00,,,0.00,Wunderground v.1.15,2013-04-17 11:45:00,
2013-04-17 05:50:00,53.3,14.3,29.59,SSW,196,1.0,1.0,21,0.00,,,0.00,Wunderground v.1.15,2013-04-17 11:50:00,
2013-04-17 06:00:00,52.5,14.7,29.59,SSW,196,0.0,3.0,22,0.00,,,0.00,Wunderground v.1.15,2013-04-17 12:00:00,
2013-04-17 06:10:00,52.4,17.6,29.59,SSW,196,0.0,3.0,25,0.00,,,0.00,Wunderground v.1.15,2013-04-17 12:10:00,
2013-04-17 06:19:00,52.2,16.4,29.60,SSW,196,0.0,3.0,24,0.00,,,0.00,Wunderground v.1.15,2013-04-17 12:19:00,
2013-04-17 06:29:00,51.5,15.8,29.60,SSW,196,0.0,0.0,24,0.00,,,0.00,Wunderground v.1.15,2013-04-17 12:29:00,
2013-04-17 06:35:00,51.2,17.4,29.60,SSW,196,0.0,2.0,26,0.00,,,0.00,Wunderground v.1.15,2013-04-17 12:35:00,
2013-04-17 06:45:00,51.8,17.0,29.61,SSW,196,1.0,2.0,25,0.00,,,0.00,Wunderground v.1.15,2013-04-17 12:45:00,
2013-04-17 06:54:00,51.2,16.5,29.61,SSW,196,0.0,2.0,25,0.00,,,0.00,Wunderground v.1.15,2013-04-17 12:54:00,
2013-04-17 07:04:00,51.1,18.2,29.61,SSW,196,0.0,2.0,27,0.00,,,0.00,Wunderground v.1.15,2013-04-17 13:04:00,
2013-04-17 07:14:00,51.6,19.5,29.62,SSW,196,0.0,2.0,28,0.00,,,0.00,Wunderground v.1.15,2013-04-17 13:14:00,
2013-04-17 07:24:00,52.2,18.3,29.62,SSW,196,0.0,2.0,26,0.00,,,0.00,Wunderground v.1.15,2013-04-17 13:24:00,
2013-04-17 07:34:00,53.4,17.5,29.62,SSW,196,0.0,2.0,24,0.00,,,0.00,Wunderground v.1.15,2013-04-17 13:34:00,
2013-04-17 07:44:00,54.9,17.7,29.63,SSW,196,0.0,2.0,23,0.00,,,0.00,Wunderground v.1.15,2013-04-17 13:44:00,
2013-04-17 07:54:00,56.1,22.5,29.63,SSW,196,1.0,2.0,27,0.00,,,0.00,Wunderground v.1.15,2013-04-17 13:54:00,
2013-04-17 08:04:00,56.6,26.3,29.64,SW,223,3.0,5.0,31,0.00,,,0.00,Wunderground v.1.15,2013-04-17 14:04:00,
2013-04-17 08:14:00,56.5,27.0,29.64,West,268,7.0,11.0,32,0.00,,,0.00,Wunderground v.1.15,2013-04-17 14:14:00,
2013-04-17 08:24:00,56.5,27.7,29.64,WSW,256,8.0,11.0,33,0.00,,,0.00,Wunderground v.1.15,2013-04-17 14:24:00,
2013-04-17 08:29:00,56.5,27.7,29.63,West,280,10.0,10.0,33,0.00,,,0.00,Wunderground v.1.15,2013-04-17 14:29:00,
2013-04-17 08:39:00,56.1,28.1,29.64,West,261,11.0,11.0,34,0.00,,,0.00,Wunderground v.1.15,2013-04-17 14:39:00,
2013-04-17 08:49:00,56.5,27.7,29.64,WSW,256,11.0,15.0,33,0.00,,,0.00,Wunderground v.1.15,2013-04-17 14:49:00,
2013-04-17 08:59:00,56.7,27.9,29.63,WNW,291,12.0,12.0,33,0.00,,,0.00,Wunderground v.1.15,2013-04-17 14:59:00,
2013-04-17 09:09:00,57.3,28.4,29.63,West,269,12.0,15.0,33,0.00,,,0.00,Wunderground v.1.15,2013-04-17 15:09:00,
2013-04-17 09:19:00,57.5,28.6,29.63,West,264,14.0,15.0,33,0.00,,,0.00,Wunderground v.1.15,2013-04-17 15:19:00,
2013-04-17 09:29:00,57.6,27.9,29.62,West,273,13.0,13.0,32,0.00,,,0.00,Wunderground v.1.15,2013-04-17 15:29:00,
2013-04-17 09:39:00,57.7,28.0,29.62,West,271,13.0,24.0,32,0.00,,,0.00,Wunderground v.1.15,2013-04-17 15:39:00,
2013-04-17 09:49:00,58.0,28.3,29.62,WNW,290,11.0,11.0,32,0.00,,,0.00,Wunderground v.1.15,2013-04-17 15:49:00,
2013-04-17 09:54:00,58.1,27.6,29.62,West,265,12.0,12.0,31,0.00,,,0.00,Wunderground v.1.15,2013-04-17 15:54:00,
2013-04-17 10:04:00,57.2,26.8,29.61,West,278,13.0,24.0,31,0.00,,,0.00,Wunderground v.1.15,2013-04-17 16:04:00,
2013-04-17 10:14:00,57.5,26.3,29.61,West,271,13.0,24.0,30,0.00,,,0.00,Wunderground v.1.15,2013-04-17 16:14:00,
2013-04-17 10:24:00,57.5,26.3,29.61,West,281,13.0,24.0,30,0.00,,,0.00,Wunderground v.1.15,2013-04-17 16:24:00,
2013-04-17 10:34:00,57.2,26.0,29.61,West,266,11.0,18.0,30,0.00,,,0.00,Wunderground v.1.15,2013-04-17 16:34:00,
2013-04-17 10:44:00,58.4,26.2,29.61,NW,323,10.0,14.0,29,0.00,,,0.00,Wunderground v.1.15,2013-04-17 16:44:00,
2013-04-17 10:54:00,58.9,25.8,29.61,WNW,291,12.0,26.0,28,0.00,,,0.00,Wunderground v.1.15,2013-04-17 16:54:00,
2013-04-17 11:04:00,58.9,25.8,29.61,NNW,327,11.0,26.0,28,0.00,,,0.00,Wunderground v.1.15,2013-04-17 17:04:00,
2013-04-17 11:14:00,57.8,25.7,29.61,WNW,285,12.0,26.0,29,0.00,,,0.00,Wunderground v.1.15,2013-04-17 17:14:00,
2013-04-17 11:24:00,58.1,25.1,29.61,West,272,10.0,26.0,28,0.00,,,0.00,Wunderground v.1.15,2013-04-17 17:24:00,
2013-04-17 11:33:00,58.0,25.0,29.61,WNW,293,10.0,23.0,28,0.00,,,0.00,Wunderground v.1.15,2013-04-17 17:33:00,
2013-04-17 11:43:00,57.8,24.9,29.61,West,280,10.0,23.0,28,0.00,,,0.00,Wunderground v.1.15,2013-04-17 17:43:00,
2013-04-17 11:49:00,58.0,25.0,29.60,WNW,292,10.0,23.0,28,0.00,,,0.00,Wunderground v.1.15,2013-04-17 17:49:00,
2013-04-17 11:59:00,58.5,25.5,29.60,WSW,252,9.0,9.0,28,0.00,,,0.00,Wunderground v.1.15,2013-04-17 17:59:00,
2013-04-17 12:08:00,58.2,26.1,29.60,West,263,10.0,23.0,29,0.00,,,0.00,Wunderground v.1.15,2013-04-17 18:08:00,
2013-04-17 12:18:00,58.0,25.0,29.59,WNW,292,8.0,8.0,28,0.00,,,0.00,Wunderground v.1.15,2013-04-17 18:18:00,
2013-04-17 12:29:00,58.1,25.1,29.59,West,259,7.0,8.0,28,0.00,,,0.00,Wunderground v.1.15,2013-04-17 18:29:00,
2013-04-17 12:38:00,58.4,24.5,29.58,West,267,9.0,9.0,27,0.00,,,0.00,Wunderground v.1.15,2013-04-17 18:38:00,
2013-04-17 12:48:00,58.9,24.9,29.58,West,267,9.0,19.0,27,0.00,,,0.00,Wunderground v.1.15,2013-04-17 18:48:00,
2013-04-17 12:58:00,59.5,25.5,29.57,West,277,11.0,19.0,27,0.00,,,0.00,Wunderground v.1.15,2013-04-17 18:58:00,
2013-04-17 13:03:00,60.4,25.3,29.57,West,277,11.0,19.0,26,0.00,,,0.00,Wunderground v.1.15,2013-04-17 19:03:00,
2013-04-17 13:13:00,60.0,25.0,29.57,West,263,12.0,14.0,26,0.00,,,0.00,Wunderground v.1.15,2013-04-17 19:13:00,
2013-04-17 13:23:00,59.7,24.7,29.57,WSW,252,10.0,10.0,26,0.00,,,0.00,Wunderground v.1.15,2013-04-17 19:23:00,
2013-04-17 13:33:00,59.7,25.6,29.57,WNW,283,9.0,23.0,27,0.00,,,0.00,Wunderground v.1.15,2013-04-17 19:33:00,
2013-04-17 13:43:00,60.4,25.3,29.57,WNW,284,12.0,23.0,26,0.00,,,0.00,Wunderground v.1.15,2013-04-17 19:43:00,
2013-04-17 13:48:00,60.2,26.1,29.57,WSW,243,12.0,23.0,27,0.00,,,0.00,Wunderground v.1.15,2013-04-17 19:48:00,
2013-04-17 13:58:00,61.0,25.8,29.57,West,268,14.0,23.0,26,0.00,,,0.00,Wunderground v.1.15,2013-04-17 19:58:00,
2013-04-17 14:08:00,60.5,25.4,29.57,SW,233,13.0,23.0,26,0.00,,,0.00,Wunderground v.1.15,2013-04-17 20:08:00,
2013-04-17 14:18:00,60.7,25.6,29.58,NW,306,15.0,15.0,26,0.00,,,0.00,Wunderground v.1.15,2013-04-17 20:18:00,
2013-04-17 14:28:00,60.7,25.6,29.58,WSW,254,15.0,15.0,26,0.00,,,0.00,Wunderground v.1.15,2013-04-17 20:28:00,
2013-04-17 14:38:00,59.3,24.4,29.58,WSW,254,15.0,15.0,26,0.00,,,0.00,Wunderground v.1.15,2013-04-17 20:38:00,
2013-04-17 14:48:00,59.4,24.5,29.59,WNW,303,14.0,29.0,26,0.00,,,0.00,Wunderground v.1.15,2013-04-17 20:48:00,
2013-04-17 14:58:00,58.7,24.8,29.58,NW,321,14.0,14.0,27,0.00,,,0.00,Wunderground v.1.15,2013-04-17 20:58:00,
2013-04-17 15:03:00,60.0,24.0,29.58,NW,306,12.0,29.0,25,0.00,,,0.00,Wunderground v.1.15,2013-04-17 21:03:00,
2013-04-17 15:13:00,59.1,22.3,29.58,WSW,251,15.0,29.0,24,0.00,,,0.00,Wunderground v.1.15,2013-04-17 21:13:00,
2013-04-17 15:23:00,57.6,22.0,29.58,West,263,16.0,21.0,25,0.00,,,0.00,Wunderground v.1.15,2013-04-17 21:23:00,
2013-04-17 15:33:00,57.4,20.9,29.58,West,279,16.0,35.0,24,0.00,,,0.00,Wunderground v.1.15,2013-04-17 21:33:00,
2013-04-17 15:43:00,58.4,19.7,29.58,WNW,284,16.0,35.0,22,0.00,,,0.00,Wunderground v.1.15,2013-04-17 21:43:00,
2013-04-17 15:53:00,57.3,20.8,29.58,West,260,19.0,35.0,24,0.00,,,0.00,Wunderground v.1.15,2013-04-17 21:53:00,
2013-04-17 16:03:00,57.8,20.2,29.59,West,267,17.0,20.0,23,0.00,,,0.00,Wunderground v.1.15,2013-04-17 22:03:00,
2013-04-17 16:13:00,57.4,18.8,29.59,WSW,246,17.0,35.0,22,0.00,,,0.00,Wunderground v.1.15,2013-04-17 22:13:00,
2013-04-17 16:23:00,56.9,17.3,29.61,WNW,285,19.0,35.0,21,0.00,,,0.00,Wunderground v.1.15,2013-04-17 22:23:00,
2013-04-17 16:33:00,51.3,25.2,29.63,WNW,301,18.0,38.0,36,0.00,,,0.00,Wunderground v.1.15,2013-04-17 22:33:00,
2013-04-17 16:43:00,49.6,25.6,29.64,NW,318,18.0,38.0,39,0.00,,,0.00,Wunderground v.1.15,2013-04-17 22:43:00,
2013-04-17 16:53:00,49.7,24.5,29.66,NW,312,16.0,24.0,37,0.00,,,0.00,Wunderground v.1.15,2013-04-17 22:53:00,
2013-04-17 17:03:00,50.0,24.1,29.68,North,349,16.0,18.0,36,0.00,,,0.00,Wunderground v.1.15,2013-04-17 23:03:00,
2013-04-17 17:13:00,50.1,23.5,29.69,NW,318,16.0,19.0,35,0.00,,,0.00,Wunderground v.1.15,2013-04-17 23:13:00,
2013-04-17 17:22:00,50.8,23.4,29.70,WNW,295,13.0,38.0,34,0.00,,,0.00,Wunderground v.1.15,2013-04-17 23:22:00,
2013-04-17 17:33:00,50.8,22.7,29.71,WNW,302,16.0,30.0,33,0.00,,,0.00,Wunderground v.1.15,2013-04-17 23:33:00,
2013-04-17 17:43:00,50.9,22.8,29.71,NW,326,15.0,30.0,33,0.00,,,0.00,Wunderground v.1.15,2013-04-17 23:43:00,
2013-04-17 17:52:00,50.3,22.3,29.73,NW,319,17.0,18.0,33,0.00,,,0.00,Wunderground v.1.15,2013-04-17 23:52:00,
2013-04-17 18:02:00,50.5,21.7,29.74,NW,322,15.0,30.0,32,0.00,,,0.00,Wunderground v.1.15,2013-04-18 00:02:00,
2013-04-17 18:08:00,50.2,21.4,29.75,NW,312,14.0,14.0,32,0.00,,,0.00,Wunderground v.1.15,2013-04-18 00:08:00,
2013-04-17 18:18:00,50.2,22.9,29.75,NNW,327,14.0,30.0,34,0.00,,,0.00,Wunderground v.1.15,2013-04-18 00:18:00,
2013-04-17 18:27:00,48.9,20.3,29.76,WNW,301,17.0,23.0,32,0.00,,,0.00,Wunderground v.1.15,2013-04-18 00:27:00,
2013-04-17 18:37:00,48.2,20.4,29.77,NW,304,16.0,29.0,33,0.00,,,0.00,Wunderground v.1.15,2013-04-18 00:37:00,
2013-04-17 18:48:00,48.3,21.2,29.77,NW,304,11.0,29.0,34,0.00,,,0.00,Wunderground v.1.15,2013-04-18 00:48:00,
2013-04-17 18:57:00,47.4,21.1,29.78,West,275,11.0,29.0,35,0.00,,,0.00,Wunderground v.1.15,2013-04-18 00:57:00,
2013-04-17 19:07:00,47.1,21.5,29.79,WNW,288,9.0,9.0,36,0.00,,,0.00,Wunderground v.1.15,2013-04-18 01:07:00,
2013-04-17 19:17:00,47.0,20.7,29.80,WNW,283,7.0,29.0,35,0.00,,,0.00,Wunderground v.1.15,2013-04-18 01:17:00,
2013-04-17 19:27:00,46.9,20.6,29.80,WNW,287,6.0,9.0,35,0.00,,,0.00,Wunderground v.1.15,2013-04-18 01:27:00,
2013-04-17 19:32:00,46.8,19.9,29.81,West,278,5.0,21.0,34,0.00,,,0.00,Wunderground v.1.15,2013-04-18 01:32:00,
2013-04-17 19:42:00,46.8,18.5,29.81,West,281,5.0,21.0,32,0.00,,,0.00,Wunderground v.1.15,2013-04-18 01:42:00,
2013-04-17 19:52:00,46.8,17.7,29.82,NW,307,6.0,21.0,31,0.00,,,0.00,Wunderground v.1.15,2013-04-18 01:52:00,
2013-04-17 20:02:00,46.8,17.0,29.82,West,280,8.0,11.0,30,0.00,,,0.00,Wunderground v.1.15,2013-04-18 02:02:00,
2013-04-17 20:07:00,46.6,16.8,29.83,WNW,292,7.0,21.0,30,0.00,,,0.00,Wunderground v.1.15,2013-04-18 02:07:00,
2013-04-17 20:17:00,46.4,16.6,29.84,WNW,282,7.0,7.0,30,0.00,,,0.00,Wunderground v.1.15,2013-04-18 02:17:00,
2013-04-17 20:27:00,46.2,16.4,29.85,West,277,6.0,7.0,30,0.00,,,0.00,Wunderground v.1.15,2013-04-18 02:27:00,
2013-04-17 20:37:00,46.1,16.3,29.86,WNW,291,7.0,17.0,30,0.00,,,0.00,Wunderground v.1.15,2013-04-18 02:37:00,
2013-04-17 20:42:00,46.0,16.3,29.86,WNW,298,6.0,17.0,30,0.00,,,0.00,Wunderground v.1.15,2013-04-18 02:42:00,
2013-04-17 20:52:00,46.1,14.8,29.87,NW,311,8.0,17.0,28,0.00,,,0.00,Wunderground v.1.15,2013-04-18 02:52:00,
2013-04-17 21:02:00,45.5,16.6,29.89,NW,325,10.0,10.0,31,0.00,,,0.00,Wunderground v.1.15,2013-04-18 03:02:00,
2013-04-17 21:12:00,44.9,16.8,29.89,WNW,300,8.0,17.0,32,0.00,,,0.00,Wunderground v.1.15,2013-04-18 03:12:00,
2013-04-17 21:22:00,44.7,18.0,29.90,NW,305,6.0,11.0,34,0.00,,,0.00,Wunderground v.1.15,2013-04-18 03:22:00,
2013-04-17 21:32:00,44.5,17.8,29.91,WNW,295,7.0,19.0,34,0.00,,,0.00,Wunderground v.1.15,2013-04-18 03:32:00,
2013-04-17 21:42:00,44.4,18.4,29.91,NW,306,6.0,19.0,35,0.00,,,0.00,Wunderground v.1.15,2013-04-18 03:42:00,
2013-04-17 21:52:00,44.0,19.4,29.92,West,279,8.0,19.0,37,0.00,,,0.00,Wunderground v.1.15,2013-04-18 03:52:00,
2013-04-17 22:02:00,43.6,19.6,29.93,WNW,284,5.0,19.0,38,0.00,,,0.00,Wunderground v.1.15,2013-04-18 04:02:00,
2013-04-17 22:07:00,43.3,19.4,29.93,WNW,282,4.0,4.0,38,0.00,,,0.00,Wunderground v.1.15,2013-04-18 04:07:00,
2013-04-17 22:12:00,43.1,19.8,29.94,West,281,4.0,19.0,39,0.00,,,0.00,Wunderground v.1.15,2013-04-18 04:12:00,
2013-04-17 22:17:00,42.7,20.0,29.94,WNW,282,4.0,4.0,40,0.00,,,0.00,Wunderground v.1.15,2013-04-18 04:17:00,
2013-04-17 22:27:00,42.2,19.6,29.94,WNW,282,3.0,3.0,40,0.00,,,0.00,Wunderground v.1.15,2013-04-18 04:27:00,
2013-04-17 22:37:00,42.1,19.5,29.95,WNW,282,2.0,13.0,40,0.00,,,0.00,Wunderground v.1.15,2013-04-18 04:37:00,
2013-04-17 22:42:00,42.0,19.4,29.95,WNW,282,1.0,13.0,40,0.00,,,0.00,Wunderground v.1.15,2013-04-18 04:42:00,
2013-04-17 22:52:00,41.8,19.2,29.96,WNW,282,1.0,13.0,40,0.00,,,0.00,Wunderground v.1.15,2013-04-18 04:52:00,
2013-04-17 23:02:00,41.4,19.4,29.97,WNW,282,0.0,13.0,41,0.00,,,0.00,Wunderground v.1.15,2013-04-18 05:02:00,
2013-04-17 23:12:00,41.2,19.2,29.97,WNW,282,1.0,13.0,41,0.00,,,0.00,Wunderground v.1.15,2013-04-18 05:12:00,
2013-04-17 23:22:00,41.1,19.2,29.97,WNW,282,1.0,13.0,41,0.00,,,0.00,Wunderground v.1.15,2013-04-18 05:22:00,
2013-04-17 23:32:00,41.3,18.8,29.98,WNW,282,0.0,3.0,40,0.00,,,0.00,Wunderground v.1.15,2013-04-18 05:32:00,
2013-04-17 23:42:00,41.3,18.8,29.98,WNW,282,0.0,3.0,40,0.00,,,0.00,Wunderground v.1.15,2013-04-18 05:42:00,
2013-04-17 23:52:00,41.4,18.3,29.99,WNW,282,1.0,3.0,39,0.00,,,0.00,Wunderground v.1.15,2013-04-18 05:52:00,
2013-04-17 23:57:00,41.3,18.2,29.99,WNW,282,1.0,3.0,39,0.00,,,0.00,Wunderground v.1.15,2013-04-18 05:57:00,